Weather History for Fort Leonard Wood, MO

Change the Weather History Date:

Tuesday, July 23, 2013

  Actual Average Record
Temperature  
Mean Temperature 79 °F -  
Max Temperature 91 °F 85 °F 102 °F (2005)
Min Temperature 67 °F 69 °F 57 °F (2007)
Cooling Degree Days 14    
Growing Degree Days 29 (Base 50)    
Moisture  
Dew Point 71 °F    
Average Humidity 91    
Maximum Humidity 100    
Minimum Humidity 62    
Precipitation  
Precipitation 1.28 in - - ()
Sea Level Pressure  
Sea Level Pressure 29.87 in    
Wind  
Wind Speed 6 mph (SSW)    
Max Wind Speed 21 mph    
Max Gust Speed 31 mph    
Visibility 7 miles    
Events Rain , Thunderstorm    
Averages and records for this station are not official NWS values.
T = Trace of Precipitation, MM = Missing Value Source: NWS Daily Summary

Daily Weather History Graph

Daily Weather History Graph

Search for Another Location

Airport:

Trip Planner

Search our weather history database for the weather conditions in past years. The results will help you decide how hot, cold, wet, or windy it might be!

Date:

Astronomy

Jul. 23, 2013 Rise Set
Actual Time 6:04 AM CDT 8:24 PM CDT
Civil Twilight 5:35 AM CDT 8:54 PM CDT
Nautical Twilight 4:58 AM CDT 9:31 PM CDT
Astronomical Twilight 4:18 AM CDT 10:11 PM CDT
Moon 8:56 PM CDT (7/23) 7:11 AM CDT (7/23)
Length of Visible Light 15h 19m
Length of Day
14h 19m
Full, 99% of the Moon is Illuminated
Jul 23
Full
Jul 29
Last Quarter
Aug 6
New
Aug 14
First Quarter
Aug 20
Full

Hourly Weather History & Observations

Time (CDT) Temp. Heat Index Dew Point Humidity Pressure Visibility Wind Dir Wind Speed Gust Speed Precip Events Conditions
12:58 AM 72.5 °F - 70.3 °F 93% 29.87 in 10.0 mi SSW 3.5 mph - N/A   Clear
1:58 AM 72.9 °F - 69.6 °F 90% 29.86 in 10.0 mi SSW 4.6 mph - N/A   Clear
2:58 AM 72.9 °F - 70.7 °F 93% 29.82 in 10.0 mi South 5.8 mph - N/A Thunderstorm Mostly Cloudy
3:33 AM 75.2 °F - 68.0 °F 78% 29.88 in 10.0 mi North 20.7 mph 31.1 mph N/A Thunderstorm Overcast
3:42 AM 71.6 °F - 66.2 °F 83% 29.87 in 10.0 mi North 9.2 mph 31.1 mph N/A Thunderstorm Thunderstorm
3:50 AM 71.6 °F - 66.2 °F 83% 29.87 in 10.0 mi North 16.1 mph 21.9 mph N/A Rain , Thunderstorm Light Thunderstorms and Rain
3:58 AM 70.0 °F - 67.6 °F 92% 29.85 in 8.0 mi North 13.8 mph 21.9 mph 0.01 in Rain , Thunderstorm Light Thunderstorms and Rain
4:06 AM 68.0 °F - 68.0 °F 100% 29.92 in 5.0 mi NNW 13.8 mph 19.6 mph N/A Rain , Thunderstorm Heavy Thunderstorms and Rain
4:11 AM - - - N/A% - - West 2.3 mph - N/A   Unknown
4:12 AM 68.0 °F - 68.0 °F 100% 29.90 in - North 8.1 mph - N/A Thunderstorm Thunderstorm
4:14 AM 68.0 °F - 68.0 °F 100% 29.91 in - Variable 6.9 mph - N/A Rain , Thunderstorm Heavy Thunderstorms and Rain
4:19 AM 68.0 °F - 68.0 °F 100% 29.90 in 1.5 mi NE 11.5 mph 17.3 mph N/A Rain , Thunderstorm Heavy Thunderstorms and Rain
4:29 AM 68.0 °F - 68.0 °F 100% 29.91 in 2.5 mi NE 11.5 mph - N/A Rain , Thunderstorm Heavy Thunderstorms and Rain
4:34 AM 68.0 °F - 68.0 °F 100% 29.94 in 2.5 mi Variable 6.9 mph - N/A Rain , Thunderstorm Heavy Thunderstorms and Rain
4:39 AM 68.0 °F - 68.0 °F 100% 29.94 in 1.5 mi Variable 4.6 mph - N/A Rain , Thunderstorm Heavy Thunderstorms and Rain
4:44 AM 68.0 °F - 68.0 °F 100% 29.93 in 0.8 mi Variable 2.3 mph - N/A Rain , Thunderstorm Heavy Thunderstorms and Rain
4:49 AM 68.0 °F - 68.0 °F 100% 29.93 in 1.0 mi WSW 5.8 mph - N/A Rain , Thunderstorm Heavy Thunderstorms and Rain
4:54 AM 68.0 °F - 68.0 °F 100% 29.90 in 3.0 mi East 3.5 mph - N/A Rain , Thunderstorm Thunderstorms and Rain
4:58 AM 67.6 °F - 67.6 °F 100% 29.86 in 4.0 mi East 5.8 mph - 0.79 in Rain , Thunderstorm Light Thunderstorms and Rain
5:10 AM 68.0 °F - 68.0 °F 100% 29.88 in 10.0 mi South 6.9 mph - N/A Thunderstorm Thunderstorm
5:11 AM 68.0 °F - 68.0 °F 100% 29.88 in 10.0 mi SSW 5.8 mph - N/A Thunderstorm Mostly Cloudy
5:58 AM 68.0 °F - 67.8 °F 99% 29.85 in 10.0 mi South 6.9 mph - 0.03 in   Partly Cloudy
6:58 AM 68.5 °F - 68.5 °F 100% 29.84 in 10.0 mi SSW 5.8 mph - N/A   Clear
7:58 AM 71.6 °F - 67.1 °F 86% 29.85 in 10.0 mi SSE 2.3 mph - N/A   Clear
8:39 AM 73.4 °F - 68.0 °F 83% 29.88 in 10.0 mi Variable 1.2 mph - N/A   Light Drizzle
8:47 AM 75.2 °F - 69.8 °F 83% 29.88 in 10.0 mi Variable 1.2 mph - N/A   Clear
8:58 AM 75.9 °F - 69.6 °F 81% 29.86 in 10.0 mi Variable 2.3 mph - 0.00 in   Clear
9:58 AM 79.3 °F - 72.7 °F 80% 29.88 in 10.0 mi SSW 3.5 mph - N/A   Clear
10:58 AM 81.7 °F 87.6 °F 74.3 °F 78% 29.89 in 10.0 mi Variable 1.2 mph - N/A   Clear
11:58 AM 84.4 °F 92.7 °F 75.2 °F 74% 29.89 in 10.0 mi Variable 2.3 mph - N/A   Clear
12:58 PM 86.5 °F 97.8 °F 77.0 °F 73% 29.87 in 10.0 mi Variable 3.5 mph - N/A   Scattered Clouds
1:58 PM 88.2 °F 100.1 °F 77.0 °F 69% 29.86 in 10.0 mi Variable 4.6 mph - N/A   Scattered Clouds
2:58 PM 88.9 °F 100.3 °F 76.3 °F 66% 29.84 in 10.0 mi NW 4.6 mph - N/A   Scattered Clouds
3:58 PM 91.0 °F 103.5 °F 76.5 °F 62% 29.81 in 10.0 mi NW 5.8 mph - N/A   Partly Cloudy
4:24 PM 86.0 °F 96.9 °F 77.0 °F 74% 29.82 in 10.0 mi NNE 8.1 mph - N/A Rain , Thunderstorm Light Thunderstorms and Rain
4:42 PM 82.4 °F 92.4 °F 78.8 °F 89% 29.83 in 1.5 mi Variable 1.2 mph - N/A Rain , Thunderstorm Heavy Rain
4:47 PM 80.6 °F 88.1 °F 78.8 °F 94% 29.84 in 0.8 mi South 8.1 mph - N/A Rain , Thunderstorm Light Rain
4:49 PM 78.8 °F - 78.8 °F 100% 29.84 in 1.0 mi South 13.8 mph 20.7 mph N/A Rain , Thunderstorm Light Thunderstorms and Rain
4:54 PM 78.8 °F - 77.0 °F 94% 29.85 in 2.0 mi SW 10.4 mph 20.7 mph N/A Rain , Thunderstorm Thunderstorms and Rain
4:58 PM 77.0 °F - 73.4 °F 89% 29.84 in 2.5 mi West 9.2 mph 20.7 mph 0.19 in Rain , Thunderstorm Thunderstorms and Rain
5:03 PM 75.2 °F - 71.6 °F 89% 29.85 in 0.8 mi South 6.9 mph - N/A Rain , Thunderstorm Heavy Thunderstorms and Rain
5:13 PM 73.4 °F - 71.6 °F 94% 29.84 in 2.5 mi SW 3.5 mph - N/A Rain , Thunderstorm Heavy Thunderstorms and Rain
5:17 PM 71.6 °F - 71.6 °F 100% 29.84 in 1.8 mi WSW 3.5 mph - N/A Rain , Thunderstorm Heavy Rain
5:22 PM 71.6 °F - 71.6 °F 100% 29.84 in 2.0 mi SW 5.8 mph - N/A Rain , Thunderstorm Light Rain
5:27 PM 71.6 °F - 71.6 °F 100% 29.82 in 6.0 mi SE 5.8 mph - N/A Rain , Thunderstorm Light Rain
5:39 PM 75.2 °F - 73.4 °F 94% 29.83 in 10.0 mi West 1.2 mph - N/A   Mostly Cloudy
5:58 PM 75.2 °F - 74.7 °F 98% 29.83 in 10.0 mi Variable 3.5 mph - 0.26 in   Partly Cloudy
6:58 PM 74.7 °F - 72.1 °F 92% 29.86 in 10.0 mi SSE 9.2 mph - N/A   Clear
7:58 PM 72.7 °F - 70.5 °F 93% 29.86 in 10.0 mi South 5.8 mph - N/A   Partly Cloudy
8:18 PM 71.6 °F - 69.8 °F 94% 29.89 in 10.0 mi Variable 1.2 mph - N/A   Mostly Cloudy
8:58 PM 71.8 °F - 69.4 °F 92% 29.88 in 10.0 mi SE 3.5 mph - N/A   Overcast
9:08 PM 71.6 °F - 69.8 °F 94% 29.90 in 10.0 mi Calm Calm - N/A   Overcast
9:58 PM 70.2 °F - 69.4 °F 98% 29.89 in 10.0 mi Calm Calm - N/A   Partly Cloudy
10:58 PM 70.2 °F - 70.2 °F 100% 29.88 in 10.0 mi ESE 2.3 mph - N/A   Partly Cloudy
11:58 PM 68.4 °F - 68.4 °F 100% 29.90 in 10.0 mi Calm Calm - N/A   Clear